Location: Seattle
(47.6064°N, 122.3308°W)
Time: 06:29:18
(UTC-07:00)

Tiros 1 - Pass Details

Date: 31 July 2021
Orbit: 630 x 663 km, 48.4° (Epoch: 25 September)

Event Time Altitude Azimuth Distance (km) Brightness Sun altitude
Rises 23:50:19 0° 285° (WNW) 2,967 11.1 -21.7°
Reaches altitude 10° 23:52:41 10° 282° (WNW) 2,050 10.1 -21.9°
Maximum altitude 23:57:21 66° 202° (SSW) 705 7.0 -22.1°
Enters shadow 23:57:34 64° 184° (S) 710 7.0 -22.2°
